Regional Weather Roundup
Issued by NWS

Home | Current Version | Previous Version | Graphics & Text | Print | Product List | Glossary On
Versions: 1 2 3 4 5 6 7 8 9 10 11 12 13 14 15 16 17 18 19 20 21 22 23 24 25 26 27 28 29 30 31 32 33 34 35 36 37 38 39 40 41 42 43 44 45 46 47 48 49 50
313
ASUS43 KIND 241859
RWRIN

WEATHER ROUNDUP FOR INDIANA
NATIONAL WEATHER SERVICE INDIANAPOLIS IN
300 PM EDT SAT JUN 24 2017

NOTE: "FAIR" INDICATES FEW OR NO CLOUDS BELOW 12,000 FEET WITH NO
SIGNIFICANT WEATHER AND/OR OBSTRUCTIONS TO VISIBILITY.

* - STATION DOES NOT REPORT WEATHER SUCH AS PRECIPITATION OR FOG.

+ - STATION NOT QUALITY CONTROLLED BY THE NATIONAL WEATHER SERVICE.
    USE DATA WITH CAUTION...ESPECIALLY DEWPOINT AND RELATIVE
    HUMIDITY OBSERVATIONS.

INZ001>003-010>013-019-020-242000-
NORTHWEST INDIANA

CITY           SKY/WX    TMP DP  RH WIND       PRES   REMARKS
GARY /AIRPORT/ MOSUNNY   73  45  35 W16G31    30.00R
KNOX *+        MOSUNNY   73  39  29 W13G24    29.98S
MICHIGAN CITY+ SUNNY     73  52  46 NW13G21   29.99S
MONTICELLO +   PTSUNNY   72  54  52 W17       30.00S

$$

LMZ046-743>745-242000-
SOUTHERN LAKE MICHIGAN

STATION/POSITION TIME  TEMP    WIND        PRES    WAVE
                       AIR SEA DIR/SP/G            HT
                 (UTC) (F)     (DEG/KT/KT) (MB)    (FT)
BURNS HARBOR     1840   69     290/ 11/ 16 1015.6S
MICHIGAN CITY    1830   68     260/ 11/ 13   N/A
5NW MICH CITY    1850   68 68  310/ 10/ 14   N/A     2

$$

INZ004-005-014>016-021>024-242000-
NORTH CENTRAL INDIANA

CITY           SKY/WX    TMP DP  RH WIND       PRES   REMARKS
GOSHEN         PTSUNNY   72  53  51 NW14      29.96F
PERU/GRISSOM   MOSUNNY   74  57  54 W16G25    29.98S
SOUTH BEND     MOSUNNY   72  53  51 NW17G26   29.97F

$$

INZ006>009-017-018-025>027-242000-
NORTHEAST INDIANA

CITY           SKY/WX    TMP DP  RH WIND       PRES   REMARKS
FORT WAYNE     MOSUNNY   75  57  53 W14       29.97S
KENDALLVILLE + PTSUNNY   72  52  49 W6G16     29.96S

$$

INZ028-029-035-036-043>045-051>053-242000-
WEST CENTRAL INDIANA

CITY           SKY/WX    TMP DP  RH WIND       PRES   REMARKS
CRAWFORDSVL +  MOSUNNY   71  55  57 W17G23    30.04S
GREENCASTLE +  MOSUNNY   73  54  49 W9G17     30.05S
LAFAYETTE      MOSUNNY   73  55  53 W16G25    30.01S
TERRE HAUTE    MOSUNNY   76  54  46 W16       30.05S

$$

INZ030>032-037>040-046>048-054>057-064-065-242000-
CENTRAL INDIANA

CITY           SKY/WX    TMP DP  RH WIND       PRES   REMARKS
ANDERSON         N/A     75  59  57 MISG        N/A
COLUMBUS       MOSUNNY   75  52  43 NW10G18   30.02S
GREENWOOD *+   PTSUNNY   74  54  48 W14G22    30.03S
INDIANAPOLIS   PTSUNNY   75  55  49 W21       30.02S
-EAGLE CREEK   PTSUNNY   73  54  51 NW14G23   30.01F
KOKOMO +       PTSUNNY   73  57  57 W21G26    30.01S
MT COMFORT *+  MOSUNNY   75  57  53 W14G22    30.02S
SHELBYVILLE    MOSUNNY   77  55  46 W17       30.01S

$$

INZ033-034-041-042-049-050-058-059-242000-
EAST CENTRAL INDIANA

CITY           SKY/WX    TMP DP  RH WIND       PRES   REMARKS
MUNCIE         PTSUNNY   75  55  49 W18       29.99S
RICHMOND +     MOSUNNY   72  57  60 W13       30.01F

$$

INZ060-061-067>069-081>083-085>088-242000-
SOUTHWEST INDIANA

CITY           SKY/WX    TMP DP  RH WIND       PRES   REMARKS
EVANSVILLE     MOSUNNY   80  56  43 W12       30.07F
HUNTINGBURG *+ PTSUNNY   77  57  50 W17       30.06S

$$

INZ062-063-066-070>080-084-089>092-242000-
SOUTH CENTRAL AND SOUTHEAST INDIANA

CITY           SKY/WX    TMP DP  RH WIND       PRES   REMARKS
BLOOMINGTON    MOSUNNY   76  54  46 W15G23    30.04S
MADISON *+     PTSUNNY   77  55  47 W7        30.05S
SEYMOUR +      MOSUNNY   79  57  47 W13G18    30.03

$$





USA.gov is the U.S. government's official web portal to all federal, state and local government web resources and services.